Weather History for Presque Isle, ME

Change the Weather History Date:

Saturday, March 16, 2013

  Actual Average Record
Temperature  
Mean Temperature 18 °F -  
Max Temperature 26 °F 34 °F 47 °F (1945)
Min Temperature 10 °F 15 °F -11 °F (1956)
Degree Days  
Heating Degree Days 47    
Moisture  
Dew Point 4 °F    
Average Humidity 53    
Maximum Humidity 85    
Minimum Humidity 31    
Precipitation  
Precipitation 0.00 in - - ()
Sea Level Pressure  
Sea Level Pressure 29.63 in    
Wind  
Wind Speed 7 mph (NW)    
Max Wind Speed 16 mph    
Max Gust Speed 22 mph    
Visibility 10 miles    
Events      
Averages and records for this station are not official NWS values.
T = Trace of Precipitation, MM = Missing Value Source: NWS Daily Summary

Daily Weather History Graph

Daily Weather History Graph

Search for Another Location

Airport:

Trip Planner

Search our weather history database for the weather conditions in past years. The results will help you decide how hot, cold, wet, or windy it might be!

Date:

Astronomy

Mar. 16, 2013 Rise Set
Actual Time 6:42 AM EDT 6:39 PM EDT
Civil Twilight 6:12 AM EDT 7:09 PM EDT
Nautical Twilight 5:37 AM EDT 7:45 PM EDT
Astronomical Twilight 5:01 AM EDT 8:21 PM EDT
Moon 8:51 AM EDT (3/16) No Moon Set
Length of Visible Light 12h 57m
Length of Day
11h 56m
Waxing Crescent, 23% of the Moon is Illuminated
Mar 16
Waxing Crescent
Mar 19
First Quarter
Mar 27
Full
Apr 3
Last Quarter
Apr 10
New

Hourly Weather History & Observations

Time (EDT) Temp. Windchill Dew Point Humidity Pressure Visibility Wind Dir Wind Speed Gust Speed Precip Events Conditions
12:15 AM 17.6 °F 9.3 °F 6.8 °F 63% 29.53 in 10.0 mi NW 5.8 mph - N/A   Scattered Clouds
12:35 AM 17.6 °F 9.3 °F 6.8 °F 63% 29.53 in 10.0 mi NNW 5.8 mph - N/A   Clear
12:55 AM 17.6 °F 10.7 °F 6.8 °F 63% 29.53 in 10.0 mi WNW 4.6 mph - N/A   Clear
1:55 AM 12.2 °F - 8.6 °F 85% 29.54 in 10.0 mi Calm Calm - N/A   Clear
2:15 AM 12.2 °F - 6.8 °F 79% 29.54 in 10.0 mi Calm Calm - N/A   Clear
2:35 AM 12.2 °F - 8.6 °F 85% 29.54 in 10.0 mi Calm Calm - N/A   Clear
2:55 AM 10.4 °F - 6.8 °F 85% 29.55 in 10.0 mi Calm Calm - N/A   Clear
3:15 AM 10.4 °F - 6.8 °F 85% 29.54 in 10.0 mi Calm Calm - N/A   Clear
3:35 AM 10.4 °F - 6.8 °F 85% 29.54 in 10.0 mi Calm Calm - N/A   Clear
3:55 AM 12.2 °F 6.1 °F 6.8 °F 79% 29.55 in 10.0 mi NNW 3.5 mph - N/A   Clear
4:15 AM 15.8 °F 6.1 °F 6.8 °F 68% 29.55 in 10.0 mi NNW 6.9 mph - N/A   Clear
4:35 AM 15.8 °F 8.6 °F 6.8 °F 68% 29.56 in 10.0 mi NW 4.6 mph - N/A   Clear
4:55 AM 15.8 °F 8.6 °F 6.8 °F 68% 29.57 in 10.0 mi WNW 4.6 mph - N/A   Clear
5:15 AM 15.8 °F 8.6 °F 6.8 °F 68% 29.57 in 10.0 mi NW 4.6 mph - N/A   Clear
5:35 AM 14.0 °F 3.9 °F 6.8 °F 73% 29.58 in 10.0 mi WNW 6.9 mph - N/A   Clear
5:55 AM 15.8 °F 7.2 °F 6.8 °F 68% 29.58 in 10.0 mi NW 5.8 mph - N/A   Clear
6:15 AM 14.0 °F 6.5 °F 6.8 °F 73% 29.59 in 10.0 mi NW 4.6 mph - N/A   Clear
6:35 AM 14.0 °F 8.2 °F 6.8 °F 73% 29.60 in 10.0 mi NW 3.5 mph - N/A   Clear
6:55 AM 12.2 °F 2.9 °F 5.0 °F 73% 29.61 in 10.0 mi WNW 5.8 mph - N/A   Clear
7:15 AM 14.0 °F 5.1 °F 6.8 °F 73% 29.61 in 10.0 mi NW 5.8 mph - N/A   Clear
7:35 AM 15.8 °F 5.1 °F 6.8 °F 68% 29.62 in 10.0 mi NW 8.1 mph - N/A   Clear
7:55 AM 15.8 °F 4.2 °F 6.8 °F 68% 29.63 in 10.0 mi WNW 9.2 mph - N/A   Clear
8:15 AM 15.8 °F 5.1 °F 6.8 °F 68% 29.63 in 10.0 mi NW 8.1 mph - N/A   Clear
8:35 AM 17.6 °F 4.3 °F 5.0 °F 58% 29.63 in 10.0 mi NNW 12.7 mph 17.3 mph N/A   Clear
8:55 AM 17.6 °F 4.3 °F 6.8 °F 63% 29.64 in 10.0 mi WNW 12.7 mph - N/A   Clear
9:15 AM 19.4 °F 8.6 °F 6.8 °F 58% 29.63 in 10.0 mi WNW 9.2 mph 16.1 mph N/A   Clear
9:35 AM 19.4 °F 6.6 °F 6.8 °F 58% 29.63 in 10.0 mi NNW 12.7 mph 18.4 mph N/A   Clear
9:55 AM 19.4 °F 6.0 °F 6.8 °F 58% 29.62 in 10.0 mi NNW 13.8 mph 17.3 mph N/A   Clear
10:15 AM 21.2 °F 8.9 °F 6.8 °F 54% 29.62 in 10.0 mi NW 12.7 mph 19.6 mph N/A   Clear
10:35 AM 21.2 °F 10.1 °F 3.2 °F 46% 29.62 in 10.0 mi NW 10.4 mph 17.3 mph N/A   Clear
10:55 AM 21.2 °F 10.1 °F 3.2 °F 46% 29.62 in 10.0 mi NNW 10.4 mph - N/A   Scattered Clouds
11:15 AM 21.2 °F 8.9 °F 3.2 °F 46% 29.62 in 10.0 mi NNW 12.7 mph - N/A   Scattered Clouds
11:35 AM 21.2 °F 12.6 °F 1.4 °F 42% 29.62 in 10.0 mi WNW 6.9 mph 17.3 mph N/A   Scattered Clouds
11:55 AM 23.0 °F 12.4 °F 3.2 °F 43% 29.62 in 10.0 mi NNW 10.4 mph - N/A   Mostly Cloudy
12:15 PM 23.0 °F 13.9 °F 3.2 °F 43% 29.63 in 10.0 mi WNW 8.1 mph - N/A   Mostly Cloudy
12:35 PM 23.0 °F 12.4 °F 3.2 °F 43% 29.63 in 10.0 mi NNW 10.4 mph 18.4 mph N/A   Scattered Clouds
12:55 PM 23.0 °F 14.7 °F 1.4 °F 39% 29.62 in 10.0 mi West 6.9 mph 19.6 mph N/A   Scattered Clouds
1:15 PM 24.8 °F 14.0 °F 3.2 °F 40% 29.62 in 10.0 mi NNW 11.5 mph 16.1 mph N/A   Mostly Cloudy
1:35 PM 24.8 °F 12.9 °F 1.4 °F 36% 29.62 in 10.0 mi West 13.8 mph 18.4 mph N/A   Scattered Clouds
1:55 PM 26.6 °F 14.3 °F 1.4 °F 34% 29.62 in 10.0 mi NW 16.1 mph 20.7 mph N/A   Clear
2:15 PM 26.6 °F 14.3 °F 1.4 °F 34% 29.61 in 10.0 mi NW 16.1 mph 19.6 mph N/A   Clear
2:35 PM 26.6 °F 15.7 °F 1.4 °F 34% 29.61 in 10.0 mi NW 12.7 mph 18.4 mph N/A   Partly Cloudy
2:55 PM 26.6 °F 17.5 °F 1.4 °F 34% 29.62 in 10.0 mi NW 9.2 mph - N/A   Scattered Clouds
3:15 PM 26.6 °F 14.3 °F 1.4 °F 34% 29.61 in 10.0 mi NNW 16.1 mph 20.7 mph N/A   Mostly Cloudy
3:35 PM 26.6 °F 15.7 °F 3.2 °F 37% 29.62 in 10.0 mi NW 12.7 mph 21.9 mph N/A   Partly Cloudy
3:55 PM 26.6 °F 16.8 °F 3.2 °F 37% 29.62 in 10.0 mi NNW 10.4 mph - N/A   Clear
4:15 PM 26.6 °F 15.2 °F 1.4 °F 34% 29.62 in 10.0 mi NNW 13.8 mph 18.4 mph N/A   Clear
4:35 PM 26.6 °F 17.5 °F -0.4 °F 31% 29.62 in 10.0 mi NW 9.2 mph - N/A   Clear
4:55 PM 26.6 °F 16.2 °F -0.4 °F 31% 29.62 in 10.0 mi WNW 11.5 mph 18.4 mph N/A   Clear
5:15 PM 26.6 °F 16.8 °F -0.4 °F 31% 29.63 in 10.0 mi NW 10.4 mph - N/A   Clear
5:35 PM 26.6 °F 16.8 °F -0.4 °F 31% 29.63 in 10.0 mi NW 10.4 mph - N/A   Clear
5:55 PM 26.6 °F 18.2 °F -0.4 °F 31% 29.64 in 10.0 mi NW 8.1 mph - N/A   Clear
6:15 PM 24.8 °F 15.3 °F -0.4 °F 34% 29.64 in 10.0 mi NW 9.2 mph - N/A   Clear
6:35 PM 24.8 °F 15.3 °F 1.4 °F 36% 29.65 in 10.0 mi NW 9.2 mph - N/A   Clear
6:55 PM 24.8 °F 14.6 °F 1.4 °F 36% 29.66 in 10.0 mi NNW 10.4 mph - N/A   Clear
7:15 PM 23.0 °F 12.4 °F 3.2 °F 43% 29.66 in 10.0 mi North 10.4 mph - N/A   Clear
7:35 PM 23.0 °F 12.4 °F 3.2 °F 43% 29.67 in 10.0 mi NNW 10.4 mph - N/A   Clear
7:55 PM 21.2 °F 10.9 °F 1.4 °F 42% 29.68 in 10.0 mi NNW 9.2 mph - N/A   Clear
8:15 PM 21.2 °F 10.1 °F 1.4 °F 42% 29.69 in 10.0 mi NNW 10.4 mph - N/A   Clear
8:35 PM 21.2 °F 10.1 °F 1.4 °F 42% 29.69 in 10.0 mi NNW 10.4 mph - N/A   Clear
8:55 PM 21.2 °F 11.7 °F 1.4 °F 42% 29.70 in 10.0 mi NNW 8.1 mph - N/A   Clear
9:15 PM 19.4 °F 10.4 °F -0.4 °F 42% 29.71 in 10.0 mi NNW 6.9 mph - N/A   Clear
9:35 PM 19.4 °F 10.4 °F 1.4 °F 46% 29.72 in 10.0 mi NNW 6.9 mph - N/A   Clear
9:55 PM 19.4 °F 10.4 °F 1.4 °F 46% 29.72 in 10.0 mi NNW 6.9 mph - N/A   Clear
10:15 PM 19.4 °F 9.5 °F 1.4 °F 46% 29.73 in 10.0 mi NNW 8.1 mph - N/A   Clear
10:35 PM 17.6 °F 8.2 °F 1.4 °F 49% 29.73 in 10.0 mi NNW 6.9 mph - N/A   Clear
10:55 PM 17.6 °F 9.3 °F 3.2 °F 53% 29.73 in 10.0 mi NNW 5.8 mph - N/A   Clear
11:15 PM 17.6 °F 12.3 °F 3.2 °F 53% 29.74 in 10.0 mi NNW 3.5 mph - N/A   Clear
11:35 PM 15.8 °F 7.2 °F 3.2 °F 58% 29.74 in 10.0 mi NNW 5.8 mph - N/A   Clear
11:55 PM 15.8 °F 8.6 °F 1.4 °F 53% 29.75 in 10.0 mi NW 4.6 mph - N/A   Clear